{"data":{"norad_id":51970,"epoch":"2026-05-24T23:27:51.717024Z","epoch_age_seconds":87557,"freshness":"FRESH","line1":"1 51970U 22025Q   26144.97768191  .00000182  00000+0  18278-4 0  9998","line2":"2 51970  53.1603  42.3645 0001124  90.0240 270.0890 15.30188149232518","mean_motion":15.30188149,"eccentricity":0.0001124,"inclination_deg":53.1603,"raan_deg":42.3645,"arg_perigee_deg":90.024,"mean_anomaly_deg":270.089,"bstar":1.8278e-5,"rev_number":23251,"period_min":94.106074533453,"perigee_km":474.48013384764,"apogee_km":476.02077534744,"semimajor_km":6853.3874545975,"source":"CELESTRAK","updated_at":"2026-05-25T13:38:16.993485Z"}}